Hourly Data Report for October 09, 2013

All times are specified in Local Standard Time (LST). Add 1 hour to adjust for Daylight Saving Time where and when it is observed.

QIKIQTARJUAQ A
NUNAVUT

67°32'48.000" N
64°01'54.000" W
5.50 m
2400577
YVM

Download Data

Hourly Data (October 2013)
Hourly Data Report for October 9, 2013
Temp Definition
°C
Dew Point Temp Definition
°C
Rel Hum Definition
%
Wind Dir Definition
10's deg

Wind Spd Definition
km/h
Visibility Definition
km
Stn Press Definition
kPa
Hmdx Definition


Wind Chill Definition


Weather Definition


TIME
00:00 Legend Double Dagger -1.8 -2.6 94 36 35 1.6 99.49   -9 LegendNANA
01:00 Legend Double Dagger -1.8 -2.8 93 34 24 1.2 99.50   -8 LegendNANA
02:00 Legend Double Dagger -1.5 -2.2 95 36 35 1.2 99.53   -9 LegendNANA
03:00 Legend Double Dagger -1.3 -2.9 89 35 35 8.1 99.60   -9 LegendNANA
04:00 Legend Double Dagger -1.4 -2.5 92 35 32 2.0 99.70   -9 LegendNANA
05:00 Legend Double Dagger -1.3 -2.9 89 34 28 6.4 99.76   -8 LegendNANA
06:00 Legend Double Dagger -1.3 -2.6 91 35 39 2.4 99.81   -9 LegendNANA
07:00 Legend Double Dagger -1.2 -3.5 84 35 32 8.1 99.86   -8 LegendNANA
08:00 Legend Double Dagger -1.2 -3.2 86 35 30 4.8 99.90   -8 LegendNANA
09:00 Legend Double Dagger -1.0 -3.0 87 34 33 2.8 99.89   -8 LegendNANA
10:00 Legend Double Dagger -0.7 -2.0 91 36 39 2.0 99.92   -8 LegendNANA
11:00 Legend Double Dagger -0.7 -2.0 91 36 39 2.0 99.94   -8 LegendNANA
12:00 Legend Double Dagger -0.8 -3.0 85 36 42 2.8 100.01   -9 LegendNANA
13:00 Legend Double Dagger -0.6 -3.5 81 34 41 4.8 100.08   -8 LegendNANA
14:00 Legend Double Dagger -0.9 -3.9 80 34 41 4.8 100.16   -9 LegendNANA
15:00 Legend Double Dagger -1.4 -3.3 87 35 41 3.2 100.24   -9 LegendNANA
16:00 Legend Double Dagger -1.5 -3.4 87 34 33 2.8 100.36   -9 LegendNANA
17:00 Legend Double Dagger -1.1 -4.8 76 34 30 6.4 100.44   -8 LegendNANA
18:00 Legend Double Dagger -1.2 -4.3 79 33 24 6.4 100.52   -7 LegendNANA
19:00 Legend Double Dagger -1.9 -3.2 91 33 26 1.6 100.62   -8 LegendNANA
20:00 Legend Double Dagger -1.8 -3.6 87 34 30 2.8 100.68   -9 LegendNANA
21:00 Legend Double Dagger -1.7 -4.4 82 35 28 14.5 100.73   -8 LegendNANA
22:00 Legend Double Dagger -1.5 -5.0 77 33 22 12.9 100.76   -7 LegendNANA
23:00 Legend Double Dagger -1.9 -5.0 79 33 26 16.1 100.81   -8 LegendNANA

Notes on Data Quality.

Legend

  • E = Estimated
  • M = Missing
  • NA = Not Available
  • ‡ = Partner data that is not subject to review by the National Climate Archives
Date modified: